GW0552 Weather Reports


time (UTC)temp
F
wind
direction
speed
knots
gust
knots
rain 1hr
in
rain 24hr
in
rain mn
in
humidity
%
barometer
mb
20260905115016 73 48 0.0 0.0 0.00 0.01 0.01 99 1010.3
20260905114515 73 41 0.0 0.0 0.00 0.01 0.01 99 1010.3
20260905114014 73 49 0.0 0.0 0.00 0.01 0.01 99 1010.4
20260905113509 73 58 0.9 1.7 0.00 0.01 0.01 99 1010.2
20260905113005 73 65 0.0 0.9 0.00 0.01 0.01 99 1009.9
20260905112500 73 294 3.5 4.3 0.00 0.01 0.01 99 1010.2
20260905111955 71 258 5.2 7.0 0.00 0.01 0.01 99 1010.0
20260905111450 71 50 0.0 0.0 0.00 0.01 0.01 99 1009.2
20260905110949 71 61 0.0 0.0 0.00 0.01 0.01 99 1009.0
20260905110449 71 64 0.0 0.0 0.00 0.01 0.01 99 1009.1
20260905105948 71 63 0.0 0.0 0.00 0.01 0.01 99 1008.9
20260905105443 71 63 0.0 0.0 0.00 0.01 0.01 99 1009.3
20260905104942 71 63 0.0 0.0 0.00 0.01 0.01 99 1009.1
20260905104439 71 66 0.0 0.0 0.00 0.01 0.01 99 1009.1
20260905103933 71 58 0.0 0.0 0.00 0.01 0.01 99 1009.1
20260905103428 71 66 0.0 0.9 0.00 0.01 0.01 99 1009.0
20260905102924 71 65 0.9 0.9 0.00 0.01 0.01 99 1008.9
20260905102420 71 63 1.7 1.7 0.00 0.01 0.01 99 1009.3
20260905101915 71 61 0.0 0.0 0.00 0.01 0.01 99 1009.1
20260905101414 71 66 0.0 0.0 0.00 0.01 0.01 99 1009.2
20260905100909 71 61 0.0 0.0 0.00 0.01 0.01 99 1009.2
20260905100405 71 53 0.0 0.0 0.00 0.01 0.01 99 1009.3
20260905095904 71 52 0.0 0.0 0.00 0.01 0.01 99 1009.3
20260905095358 71 52 0.0 0.0 0.00 0.01 0.01 99 1009.2
20260905094853 72 59 0.0 0.0 0.00 0.01 0.01 99 1008.9
20260905094349 72 78 1.7 1.7 0.07 0.01 0.01 99 1008.9
20260905093847 72 63 1.7 1.7 0.07 0.01 0.01 99 1008.8
20260905093343 72 77 3.5 4.3 0.07 0.01 0.01 99 1008.8
20260905092839 72 76 1.7 1.7 0.00 0.00 0.00 99 1009.2
20260905092338 72 61 1.7 1.7 0.00 0.00 0.00 99 1009.3
20260905091834 72 65 0.9 0.9 0.00 0.00 0.00 99 1009.3
20260905091333 72 70 0.9 1.7 0.00 0.00 0.00 99 1009.4
20260905090832 71 49 0.0 0.0 0.00 0.00 0.00 99 1009.8
20260905090323 71 51 0.0 0.0 0.00 0.00 0.00 99 1009.3
20260905085822 70 45 0.0 0.0 0.00 0.00 0.00 99 1009.3
20260905085316 70 37 0.0 0.0 0.00 0.00 0.00 99 1008.9
20260905084812 71 68 0.0 0.0 0.00 0.00 0.00 99 1009.1
20260905084311 70 55 0.0 0.0 0.00 0.00 0.00 99 1009.0
20260905083806 70 60 0.0 0.0 0.00 0.00 0.00 99 1009.2
20260905083302 70 60 0.0 0.0 0.00 0.00 0.00 99 1009.0
20260905082757 70 48 0.0 0.0 0.00 0.00 0.00 99 1009.0
20260905082254 71 65 0.0 0.0 0.00 0.00 0.00 99 1009.0
20260905081753 71 65 0.0 0.0 0.00 0.00 0.00 99 1008.8
20260905081249 70 61 0.0 0.0 0.00 0.00 0.00 99 1009.1
20260905080743 71 61 0.0 0.0 0.00 0.00 0.00 99 1008.9
20260905080243 71 61 0.0 0.0 0.00 0.00 0.00 99 1009.1
20260905075741 71 61 0.0 0.0 0.00 0.00 0.00 99 1009.2
20260905075241 71 62 0.0 0.0 0.00 0.00 0.00 99 1009.0
20260905074740 71 74 0.0 0.0 0.00 0.00 0.00 99 1009.1
20260905074236 71 65 0.0 0.0 0.00 0.00 0.00 99 1009.3
20260905073731 71 66 0.0 0.0 0.00 0.00 0.00 99 1009.2
20260905073227 71 65 0.0 0.0 0.00 0.00 0.00 99 1009.4
20260905072726 71 65 0.0 0.0 0.00 0.00 0.00 99 1009.4
20260905072221 71 60 0.0 0.0 0.00 0.00 0.00 99 1009.4
20260905071718 71 60 0.0 0.0 0.00 0.00 0.00 99 1009.5
20260905071214 71 60 0.0 0.0 0.00 0.00 0.00 99 1009.5
20260905070709 71 60 0.0 0.0 0.00 0.00 0.00 99 1009.8
20260905070205 71 60 0.0 0.0 0.00 0.00 0.00 99 1009.9
20260905065703 71 60 0.0 0.0 0.00 0.00 0.00 99 1009.8
20260905065157 71 65 0.0 0.0 0.00 0.00 0.00 99 1010.0
20260905064653 71 65 0.0 0.0 0.00 0.00 0.00 99 1010.1
20260905064149 71 66 0.0 0.0 0.00 0.00 0.00 99 1010.2
20260905063647 71 66 0.0 0.0 0.00 0.00 0.00 99 1010.1
20260905063143 71 64 0.0 0.0 0.00 0.00 0.00 99 1010.2
20260905062639 71 64 0.0 0.0 0.00 0.00 0.00 99 1010.5
20260905062138 71 66 0.0 0.0 0.00 0.00 0.00 99 1010.5
20260905061633 71 62 0.0 0.0 0.00 0.00 0.00 99 1010.6
20260905061132 71 55 0.0 0.0 0.00 0.00 0.00 99 1010.5
20260905060628 72 55 0.0 0.0 0.00 0.00 0.00 99 1010.5
20260905060124 72 62 0.0 0.0 0.00 0.00 0.00 99 1010.9
20260905055622 72 64 0.0 0.0 0.00 0.00 0.00 99 1010.7
20260905055118 72 64 0.0 0.0 0.00 0.00 0.00 99 1010.9
20260905054614 72 75 0.9 0.9 0.00 0.00 0.00 99 1010.9
20260905054109 72 70 0.9 0.9 0.00 0.00 0.00 99 1010.8
20260905053608 72 79 1.7 1.7 0.00 0.00 0.00 99 1011.0
20260905053104 72 76 0.9 1.7 0.00 0.00 0.00 99 1011.2
20260905052603 72 59 0.0 0.0 0.00 0.00 0.00 99 1011.2
20260905052058 72 59 0.0 0.0 0.00 0.00 0.00 99 1011.3
20260905051554 72 58 0.0 0.0 0.00 0.00 0.00 99 1011.3
20260905051050 72 59 0.0 0.0 0.00 0.00 0.00 99 1011.3
20260905050546 72 59 0.0 0.0 0.00 0.00 0.00 99 1011.2
20260905050043 72 59 0.0 0.0 0.00 0.00 0.00 99 1011.4
20260905045537 72 59 0.0 0.0 0.00 0.00 0.00 99 1011.2
20260905045033 72 59 0.0 0.0 0.00 0.00 0.00 99 1011.5
20260905044532 72 59 0.0 0.0 0.00 0.00 0.00 99 1011.3
20260905044027 72 65 0.0 0.0 0.00 0.00 0.00 99 1011.3
20260905043526 72 65 0.0 0.0 0.00 0.00 0.00 99 1011.5
20260905043022 73 65 0.0 0.0 0.00 0.00 0.00 99 1011.4
20260905042520 72 65 0.0 0.0 0.00 0.00 0.00 99 1011.3
20260905042016 73 65 0.0 0.0 0.00 0.00 0.00 99 1011.3
20260905041511 73 65 0.0 0.0 0.00 0.00 0.00 99 1011.3
20260905041007 73 65 0.0 0.0 0.00 0.00 0.00 99 1011.3
20260905040506 73 65 0.0 0.0 0.00 0.00 0.00 99 1011.1
20260905040005 73 65 0.0 0.0 0.00 0.00 0.00 99 1011.2
20260905035500 73 65 0.0 0.0 0.00 0.00 0.00 99 1011.2
20260905034957 73 66 0.0 0.0 0.00 0.00 0.00 99 1010.9
20260905034458 73 63 0.0 0.0 0.00 0.00 0.00 99 1011.0
20260905033956 73 63 0.0 0.0 0.00 0.00 0.00 99 1011.0
20260905033451 73 62 0.0 0.0 0.00 0.00 0.00 99 1011.1
20260905032946 73 68 0.0 0.0 0.00 0.00 0.00 99 1010.9
20260905032442 73 68 0.0 0.0 0.00 0.00 0.00 99 1010.8
20260905031936 73 67 0.0 0.0 0.00 0.00 0.00 99 1011.0
20260905031432 73 68 0.0 0.0 0.00 0.00 0.00 99 1010.9
20260905030927 73 64 0.0 0.0 0.00 0.00 0.00 99 1011.2
20260905030423 74 64 0.0 0.0 0.00 0.00 0.00 99 1011.2
20260905025921 73 64 0.0 0.0 0.00 0.00 0.00 98 1011.0
20260905025417 74 64 0.0 0.0 0.00 0.00 0.00 99 1011.1
20260905024914 74 64 0.0 0.0 0.00 0.00 0.00 99 1011.2
20260905024408 74 64 0.0 0.0 0.00 0.00 0.00 99 1011.1
20260905023904 74 64 0.0 0.0 0.00 0.00 0.00 99 1011.1
20260905023359 74 64 0.0 0.0 0.00 0.00 0.00 98 1010.9
20260905022857 74 64 0.0 0.0 0.00 0.00 0.00 98 1010.8
20260905022348 74 63 0.0 0.0 0.00 0.00 0.00 98 1011.0
20260905021848 74 64 0.0 0.0 0.00 0.00 0.00 98 1011.2
20260905021343 75 69 0.0 0.0 0.00 0.00 0.00 99 1011.4
20260905020838 75 67 0.0 0.0 0.00 0.00 0.00 99 1011.2
20260905020333 75 58 0.0 0.0 0.00 0.00 0.00 98 1011.3
20260905015832 75 61 0.0 0.0 0.00 0.00 0.00 98 1011.3
20260905015331 75 66 0.0 0.0 0.00 0.00 0.00 98 1011.1
20260905014831 75 56 0.0 0.0 0.00 0.00 0.00 98 1011.2
20260905014327 75 55 0.0 0.0 0.00 0.00 0.00 98 1011.0
20260905013821 75 54 0.0 0.0 0.00 0.00 0.00 98 1011.0
20260905013318 75 27 0.0 0.0 0.00 0.00 0.00 98 1011.1
20260905012813 75 63 0.0 0.0 0.00 0.00 0.00 97 1011.0
20260905012309 75 64 0.0 0.0 0.00 0.00 0.00 97 1010.8
20260905011805 76 64 0.0 0.0 0.00 0.00 0.00 97 1010.7
20260905011300 76 63 0.0 0.0 0.00 0.00 0.00 96 1011.0
20260905010754 76 62 0.0 0.0 0.00 0.00 0.00 95 1010.8
20260905010250 76 63 0.0 0.0 0.00 0.00 0.00 95 1010.6
20260905005747 76 63 0.0 0.0 0.00 0.00 0.00 96 1010.5
20260905005242 76 59 0.0 0.0 0.00 0.00 0.00 96 1010.5
20260905004742 76 46 0.0 0.0 0.00 0.00 0.00 95 1010.6
20260905004242 76 46 0.0 0.0 0.00 0.00 0.00 96 1010.8
20260905003742 76 37 0.0 0.0 0.00 0.00 0.00 96 1010.5
20260905003237 77 37 0.0 0.0 0.00 0.00 0.00 96 1010.3
20260905002733 77 33 0.0 0.0 0.00 0.00 0.00 95 1010.0
20260905002228 77 35 0.0 0.0 0.00 0.00 0.00 94 1009.3
20260905001723 77 48 0.0 0.0 0.00 0.00 0.00 93 1009.3
20260905001222 77 47 0.0 0.0 0.00 0.00 0.00 93 1009.2
20260905000718 78 48 0.0 0.0 0.00 0.00 0.00 91 1009.2
20260905000213 78 47 0.0 0.0 0.00 0.00 0.00 92 1009.1
20260904235708 79 46 0.0 0.0 0.00 0.00 0.00 92 1008.9
20260904235203 80 48 0.0 0.0 0.00 0.00 0.00 91 1009.1
20260904234657 80 66 0.0 0.0 0.00 0.00 0.00 89 1009.1
20260904234153 79 70 0.9 0.9 0.00 0.00 0.00 89 1009.3
20260904233649 79 69 0.0 0.9 0.00 0.00 0.00 89 1009.1
20260904233144 79 67 2.6 2.6 0.00 0.00 0.00 90 1008.9
20260904232641 79 66 0.0 0.9 0.00 0.00 0.00 89 1009.3
20260904232137 79 88 1.7 1.7 0.00 0.00 0.00 89 1009.3
20260904231632 79 83 1.7 1.7 0.00 0.00 0.00 89 1009.5
20260904231127 79 70 0.0 0.0 0.00 0.00 0.00 87 1009.5
20260904230626 79 54 0.0 0.0 0.00 0.00 0.00 86 1010.0
20260904230122 80 75 0.9 0.9 0.00 0.00 0.00 87 1009.8
20260904225619 80 68 0.0 0.0 0.00 0.00 0.00 84 1010.0
20260904225115 81 28 0.9 0.9 0.00 0.00 0.00 86 1010.2
20260904224609 82 75 0.0 0.0 0.00 0.00 0.00 81 1010.6
20260904224104 82 57 0.0 0.0 0.00 0.00 0.00 82 1010.5
20260904223603 82 34 0.9 0.9 0.00 0.00 0.00 82 1010.5
20260904223059 83 23 1.7 1.7 0.00 0.00 0.00 80 1010.8
20260904222554 83 57 2.6 2.6 0.00 0.00 0.00 75 1010.6
20260904222050 84 75 2.6 2.6 0.00 0.00 0.00 74 1010.8
20260904221550 83 79 1.7 1.7 0.00 0.00 0.00 74 1010.9
20260904221044 83 79 1.7 1.7 0.00 0.00 0.00 74 1011.2
20260904220543 83 76 2.6 4.3 0.00 0.00 0.00 74 1011.1
20260904220039 82 86 4.3 5.2 0.00 0.00 0.00 74 1011.2
20260904215534 82 73 0.9 0.9 0.00 0.00 0.00 77 1011.5
20260904215030 81 78 0.0 0.0 0.00 0.00 0.00 77 1011.1
20260904214525 80 49 0.0 0.0 0.00 0.00 0.00 80 1011.4
20260904214021 80 35 0.9 1.7 0.00 0.00 0.00 81 1011.5
20260904213518 81 245 2.6 2.6 0.00 0.00 0.00 82 1011.5
20260904213015 81 35 0.9 0.9 0.00 0.00 0.00 77 1011.4
20260904212514 80 68 0.0 0.0 0.00 0.00 0.00 80 1011.5
20260904212009 79 61 0.0 0.0 0.00 0.00 0.00 81 1011.6
20260904211504 79 188 2.6 2.6 0.00 0.00 0.00 82 1011.4
20260904211000 81 196 3.5 4.3 0.00 0.00 0.00 78 1011.4
20260904210459 81 76 0.0 0.0 0.00 0.00 0.00 75 1011.8
20260904205955 82 72 2.6 4.3 0.00 0.00 0.00 80 1012.1
20260904205450 83 320 4.3 5.2 0.00 0.00 0.00 78 1012.2
20260904204947 84 12 1.7 1.7 0.00 0.00 0.00 78 1012.0
20260904204443 84 358 2.6 2.6 0.00 0.00 0.00 78 1012.1
20260904203938 85 45 0.9 1.7 0.00 0.00 0.00 75 1011.4
20260904203435 85 52 0.0 0.9 0.00 0.00 0.00 75 1011.3
20260904202930 85 76 2.6 4.3 0.00 0.00 0.00 74 1011.3
20260904202426 85 68 2.6 4.3 0.00 0.00 0.00 75 1011.0
20260904201922 86 63 2.6 2.6 0.00 0.00 0.00 75 1011.2
20260904201417 86 76 1.7 1.7 0.00 0.00 0.00 78 1010.9
20260904200913 87 75 0.9 0.9 0.00 0.00 0.00 74 1011.0
20260904200411 87 83 0.9 1.7 0.00 0.00 0.00 75 1011.2
20260904195906 88 78 2.6 2.6 0.00 0.00 0.00 70 1011.3
20260904195404 88 62 0.0 0.0 0.00 0.00 0.00 67 1011.3
20260904194859 88 51 0.0 0.0 0.00 0.00 0.00 68 1011.7
20260904194358 88 76 0.9 0.9 0.00 0.00 0.00 68 1011.6
20260904193854 88 58 0.0 0.0 0.00 0.00 0.00 70 1011.6
20260904193349 88 69 1.7 1.7 0.00 0.00 0.00 69 1011.5
20260904192844 89 103 2.6 2.6 0.00 0.00 0.00 68 1011.1
20260904192339 90 85 2.6 5.2 0.00 0.00 0.00 68 1011.2
20260904191836 90 51 6.1 7.0 0.00 0.00 0.00 65 1011.2
20260904191332 91 74 4.3 7.8 0.00 0.00 0.00 68 1011.0
20260904190828 90 71 2.6 4.3 0.00 0.00 0.00 70 1010.9
20260904190324 89 87 3.5 6.1 0.00 0.00 0.00 68 1010.9
20260904185820 89 84 4.3 6.1 0.00 0.00 0.00 67 1011.3
20260904185316 90 70 4.3 7.0 0.00 0.00 0.00 67 1011.3
20260904184815 89 92 6.1 7.0 0.00 0.00 0.00 67 1011.3
20260904184310 88 102 6.1 11.3 0.00 0.00 0.00 71 1011.6
20260904183805 88 76 1.7 1.7 0.00 0.00 0.00 73 1011.5
20260904183300 89 90 1.7 1.7 0.00 0.00 0.00 70 1011.6
20260904182755 91 97 6.1 7.8 0.00 0.00 0.00 68 1011.2
20260904182250 96 105 7.0 7.8 0.00 0.00 0.00 62 1011.4
20260904181746 95 116 2.6 2.6 0.00 0.00 0.00 55 1011.4
20260904181246 95 46 2.6 2.6 0.00 0.00 0.00 57 1011.3
20260904180741 95 178 3.5 4.3 0.00 0.00 0.00 57 1011.6
20260904180236 94 355 3.5 5.2 0.00 0.00 0.00 58 1011.3
20260904175735 93 10 2.6 2.6 0.00 0.00 0.00 59 1011.5
20260904175234 95 29 0.9 1.7 0.00 0.00 0.00 59 1011.2
20260904174729 95 357 1.7 2.6 0.00 0.00 0.00 58 1011.3
20260904174225 95 349 3.5 6.1 0.00 0.00 0.00 58 1011.2
20260904173720 95 292 2.6 4.3 0.00 0.00 0.00 59 1011.7
20260904172822 91 66 0.0 0.0 0.00 0.00 0.00 73 1012.1
20260904172321 91 66 0.0 0.0 0.00 0.00 0.00 73 1012.1
20260904171816 90 66 0.0 0.0 0.00 0.00 0.00 74 1012.3
20260904171311 90 66 0.0 0.0 0.00 0.00 0.00 71 1012.2
20260904170807 91 40 0.0 0.0 0.00 0.00 0.00 70 1012.5
20260904170303 92 41 0.0 0.0 0.00 0.00 0.00 69 1012.2
20260904165802 92 30 0.9 0.9 0.00 0.00 0.00 61 1012.1
20260904165256 93 39 0.9 0.9 0.00 0.00 0.00 61 1012.2
20260904164750 95 9 3.5 4.3 0.00 0.00 0.00 59 1012.3
20260904164246 95 31 0.0 0.9 0.00 0.00 0.00 59 1012.3
20260904163742 94 25 1.7 1.7 0.00 0.00 0.00 61 1012.5
20260904163237 95 295 3.5 4.3 0.00 0.00 0.00 62 1012.5
20260904162736 95 56 0.0 0.0 0.00 0.00 0.00 61 1012.5
20260904162231 95 11 0.0 0.0 0.00 0.00 0.00 61 1012.7
20260904161726 95 72 1.7 1.7 0.00 0.00 0.00 63 1012.6
20260904161221 94 62 0.0 0.0 0.00 0.00 0.00 66 1012.6
20260904160717 94 356 3.5 5.2 0.00 0.00 0.00 62 1012.6
20260904160212 94 69 2.6 2.6 0.00 0.00 0.00 63 1012.8
20260904155712 94 67 1.7 1.7 0.00 0.00 0.00 67 1012.7
20260904155211 93 64 0.0 0.0 0.00 0.00 0.00 66 1012.8
20260904154710 93 37 0.0 0.0 0.00 0.00 0.00 69 1012.9
20260904154205 92 79 2.6 2.6 0.00 0.00 0.00 68 1012.9
20260904153700 92 46 0.0 0.9 0.00 0.00 0.00 69 1012.9
20260904153156 92 75 0.0 1.7 0.00 0.00 0.00 68 1012.9
20260904152652 91 59 0.9 0.9 0.00 0.00 0.00 71 1013.1
20260904152147 91 24 1.7 2.6 0.00 0.00 0.00 70 1012.9
20260904151642 91 7 1.7 1.7 0.00 0.00 0.00 71 1013.0
20260904151141 90 52 0.0 0.0 0.00 0.00 0.00 75 1012.9
20260904150636 89 54 0.0 0.9 0.00 0.00 0.00 76 1012.9
20260904150132 89 41 0.0 0.0 0.00 0.00 0.00 78 1012.9
20260904145630 89 48 0.9 0.9 0.00 0.00 0.00 78 1012.6
20260904145126 89 304 4.3 4.3 0.00 0.00 0.00 75 1012.9
20260904144621 88 56 0.0 0.0 0.00 0.00 0.00 81 1012.8
20260904144117 87 26 0.0 0.0 0.00 0.00 0.00 81 1012.6
20260904143613 86 32 0.0 0.0 0.00 0.00 0.00 85 1013.0
20260904143109 86 42 0.9 1.7 0.00 0.00 0.00 87 1012.9
20260904142605 86 303 2.6 2.6 0.00 0.00 0.00 83 1012.9
20260904142100 86 112 1.7 1.7 0.00 0.00 0.00 85 1013.0
20260904141555 86 27 0.0 0.0 0.00 0.00 0.00 90 1012.9
20260904141050 86 39 0.0 0.0 0.00 0.00 0.00 95 1013.0
20260904140546 85 38 0.0 0.0 0.00 0.00 0.00 95 1013.0
20260904140040 85 40 0.0 0.0 0.00 0.00 0.00 96 1012.8
20260904135539 84 41 0.0 0.0 0.00 0.00 0.00 94 1012.6
20260904135035 83 48 0.0 0.0 0.00 0.00 0.00 96 1012.7
20260904134531 83 47 0.0 0.0 0.00 0.00 0.00 98 1013.0
20260904134025 82 42 0.0 0.0 0.00 0.00 0.00 99 1013.0
20260904133519 81 42 0.0 0.0 0.00 0.00 0.00 99 1013.1
20260904133015 81 43 0.0 0.0 0.00 0.00 0.00 99 1013.0
20260904132510 80 45 0.0 0.0 0.00 0.00 0.00 99 1013.1
20260904132010 79 43 0.0 0.0 0.00 0.00 0.00 99 1013.1
20260904131504 78 42 0.0 0.0 0.00 0.00 0.00 99 1013.2
20260904131001 77 45 0.0 0.0 0.00 0.00 0.00 99 1013.2
20260904130459 77 45 0.0 0.0 0.00 0.00 0.00 99 1013.2
20260904125954 75 47 0.0 0.0 0.00 0.00 0.00 99 1013.2
20260904125451 75 44 0.0 0.0 0.00 0.00 0.00 99 1013.1
20260904124950 75 56 0.0 0.0 0.00 0.00 0.00 99 1012.9
20260904124446 74 56 0.0 0.0 0.00 0.00 0.00 99 1013.2
20260904123942 74 56 0.0 0.0 0.00 0.00 0.00 99 1012.8
20260904123436 74 61 0.0 0.0 0.00 0.00 0.00 99 1013.0
20260904122932 73 63 0.0 0.0 0.00 0.00 0.00 99 1012.8
20260904122431 73 63 0.0 0.0 0.00 0.00 0.00 99 1012.8
20260904121926 73 61 0.0 0.0 0.00 0.00 0.00 99 1013.0
20260904121422 72 61 0.0 0.0 0.00 0.00 0.00 99 1013.0
20260904120919 72 61 0.0 0.0 0.00 0.00 0.00 99 1013.1
20260904120414 72 61 0.0 0.0 0.00 0.00 0.00 99 1013.0
20260904115909 72 62 0.0 0.0 0.00 0.00 0.00 99 1013.0
20260904115405 72 61 0.0 0.0 0.00 0.00 0.00 99 1012.8